Date String (YYYY-MM-DD hh:mm:ss) UTC,Instrument flags,absolute air pressure of the measurement (hPa),sample flow rate (lpm),inlet stack bypass flow (lpm),air temperature of the measurement (°C),ambient temperature measured by the external sensor (°C),aerosol sample conditioner tube jacket temperature (°C),OPC LED temperature (°C),internal box temperature (°C),relative humidity of the measurement (%),span deviation,mass concentration of particles derived from Lorenz-Mie calculation of OPC scattering (μg/m³),mass concentration of particles derived from Lorenz-Mie calculation of OPC scattering (μg/m³),mass concentration of particles derived from Lorenz-Mie calculation of OPC scattering (μg/m³)
DateTimeUTC,F1_M11,P_M11,Q1_M11,Q2_M11,T1_M11,T2_M11,T3_M11,T4_M11,T5_M11,U1_M11,ZSPAN_M11,X0_M11,X2_M11,X1_M11
2023-11-14 17:00:00,SystemResetWarning,0832.0,5.00,000.00,027.7,026.9,000.0,035.9,029.1,6.0,0000.0,0007.01,0002.82,0001.99
2023-11-14 17:01:00,SystemResetWarning,0832.1,5.01,000.00,027.7,026.9,000.0,035.9,029.2,6.1,0000.0,0006.32,0002.81,0002.01
2023-11-14 17:02:00,SystemResetWarning,0832.0,5.01,000.00,027.7,027.0,000.0,035.9,029.2,5.4,0000.0,0005.74,0002.83,0002.02
2023-11-14 17:03:00,SystemResetWarning,0832.0,5.00,000.00,027.7,027.0,000.0,035.9,029.2,5.6,0000.0,0005.41,0002.88,0002.03
2023-11-14 17:04:00,SystemResetWarning,0832.0,4.99,000.00,027.8,027.0,000.0,035.9,029.2,5.8,0000.0,0005.38,0002.87,0002.04
2023-11-14 17:05:00,SystemResetWarning,0832.0,4.98,000.00,027.8,027.0,000.0,036.0,029.2,5.7,0000.0,0005.48,0002.90,0002.05
2023-11-14 17:06:00,SystemResetWarning,0832.0,5.00,000.00,027.8,027.0,000.0,036.0,029.2,5.5,0000.0,0005.25,0002.87,0002.05
2023-11-14 17:07:00,SystemResetWarning,0832.0,5.00,000.00,027.8,027.0,000.0,036.0,029.3,5.4,0000.0,0005.48,0002.88,0002.03
2023-11-14 17:08:00,SystemResetWarning,0832.0,5.00,000.00,027.8,027.1,000.0,036.0,029.3,5.6,0000.0,0007.05,0002.80,0001.98
2023-11-14 17:09:00,SystemResetWarning,0832.1,5.00,000.00,027.8,027.1,000.0,036.0,029.3,5.8,0000.0,0007.67,0002.80,0001.94
2023-11-14 17:10:00,SystemResetWarning,0832.1,5.00,000.00,027.9,027.1,000.0,036.0,029.3,5.7,0000.0,0007.76,0002.75,0001.91
2023-11-14 17:11:00,SystemResetWarning,0832.1,5.00,000.00,027.9,027.1,000.0,036.0,029.3,5.3,0000.0,0007.77,0002.69,0001.87
2023-11-14 17:12:00,SystemResetWarning,0832.1,5.00,000.00,027.9,027.1,000.0,036.1,029.4,5.5,0000.0,0007.83,0002.64,0001.83
2023-11-14 17:13:00,SystemResetWarning,0832.1,4.99,000.00,027.9,027.2,000.0,036.1,029.4,5.4,0000.0,0007.93,0002.57,0001.78
2023-11-14 17:14:00,SystemResetWarning,0832.2,4.99,000.00,027.9,027.2,000.0,036.1,029.4,5.3,0000.0,0007.92,0002.45,0001.73
2023-11-14 17:15:00,SystemResetWarning,0832.2,5.00,000.00,027.9,027.2,000.0,036.1,029.4,5.4,0000.0,0007.99,0002.42,0001.70
2023-11-14 17:16:00,SystemResetWarning,0832.2,4.99,000.00,028.0,027.2,000.0,036.1,029.5,5.2,0000.0,0007.97,0002.37,0001.68
2023-11-14 17:17:00,SystemResetWarning,0832.1,5.01,000.00,028.0,027.2,000.0,036.2,029.5,5.0,0000.0,0007.96,0002.36,0001.64
2023-11-14 17:18:00,SystemResetWarning,0832.2,5.00,000.00,028.0,027.3,000.0,036.2,029.5,5.3,0000.0,0007.80,0002.27,0001.61
2023-11-14 17:19:00,SystemResetWarning,0832.2,5.01,000.00,028.0,027.3,000.0,036.2,029.5,5.4,0000.0,0006.40,0002.25,0001.60
2023-11-14 17:20:00,SystemResetWarning,0832.2,5.01,000.00,028.0,027.3,000.0,036.2,029.6,5.5,0000.0,0005.46,0002.18,0001.58
2023-11-14 17:21:00,SystemResetWarning,0832.2,5.01,000.00,028.1,027.3,000.0,036.2,029.6,5.4,0000.0,0005.48,0002.11,0001.57
2023-11-14 17:22:00,SystemResetWarning,0832.2,5.00,000.00,028.1,027.4,000.0,036.2,029.6,5.4,0000.0,0005.48,0002.07,0001.55
2023-11-14 17:23:00,SystemResetWarning,0832.2,4.99,000.00,028.1,027.4,000.0,036.2,029.6,5.6,0000.0,0006.17,0002.05,0001.55
2023-11-14 17:24:00,SystemResetWarning,0832.2,5.00,000.00,028.1,027.4,000.0,036.3,029.6,5.9,0000.0,0005.95,0002.10,0001.58
2023-11-14 17:25:00,SystemResetWarning,0832.2,5.01,000.00,028.1,027.4,000.0,036.3,029.7,5.9,0000.0,0006.13,0002.15,0001.60
2023-11-14 17:26:00,SystemResetWarning,0832.2,5.00,000.00,028.2,027.5,000.0,036.3,029.7,6.0,0000.0,0007.61,0002.15,0001.60
2023-11-14 17:27:00,SystemResetWarning,0832.2,5.01,000.00,028.2,027.5,000.0,036.3,029.7,6.2,0000.0,0007.87,0002.21,0001.61
2023-11-14 17:28:00,SystemResetWarning,0832.2,5.00,000.00,028.2,027.5,000.0,036.4,029.7,6.2,0000.0,0009.36,0002.22,0001.63
2023-11-14 17:29:00,SystemResetWarning,0832.2,5.00,000.00,028.2,027.5,000.0,036.4,029.7,6.4,0000.0,0009.77,0002.27,0001.65
2023-11-14 17:30:00,SystemResetWarning,0832.2,4.99,000.00,028.2,027.6,000.0,036.4,029.8,6.5,0000.0,0010.09,0002.41,0001.70
2023-11-14 17:31:00,SystemResetWarning,0832.2,5.00,000.00,028.3,027.6,000.0,036.4,029.8,6.4,0000.0,0010.39,0002.56,0001.76
2023-11-14 17:32:00,SystemResetWarning,0832.2,5.00,000.00,028.3,027.6,000.0,036.4,029.8,6.0,0000.0,0010.14,0002.68,0001.81
2023-11-14 17:33:00,SystemResetWarning,0832.2,5.00,000.00,028.3,027.6,000.0,036.4,029.8,5.9,0000.0,0010.08,0002.79,0001.89
2023-11-14 17:34:00,SystemResetWarning,0832.1,5.00,000.00,028.3,027.7,000.0,036.5,029.8,6.0,0000.0,0009.76,0002.92,0001.94
2023-11-14 17:35:00,SystemResetWarning,0832.1,5.00,000.00,028.4,027.7,000.0,036.5,029.9,6.3,0000.0,0010.18,0003.09,0002.00
2023-11-14 17:36:00,SystemResetWarning,0832.1,5.00,000.00,028.4,027.7,000.0,036.5,029.9,6.0,0000.0,0010.73,0003.16,0002.05
2023-11-14 17:37:00,SystemResetWarning,0832.0,5.00,000.00,028.4,027.7,000.0,036.5,029.9,5.5,0000.0,0010.46,0003.18,0002.09
2023-11-14 17:38:00,SystemResetWarning,0832.0,5.00,000.00,028.4,027.8,000.0,036.6,029.9,5.7,0000.0,0010.24,0003.17,0002.10
2023-11-14 17:39:00,SystemResetWarning,0832.0,4.98,000.00,028.4,027.8,000.0,036.6,030.0,5.6,0000.0,0008.82,0003.19,0002.13
2023-11-14 17:40:00,SystemResetWarning,0832.0,4.99,000.00,028.5,027.8,000.0,036.6,030.0,5.6,0000.0,0008.47,0003.21,0002.15
2023-11-14 17:41:00,SystemResetWarning,0832.0,5.00,000.00,028.5,027.8,000.0,036.6,030.0,5.6,0000.0,0008.34,0003.20,0002.16
2023-11-14 17:42:00,SystemResetWarning,0832.1,5.00,000.00,028.5,027.8,000.0,036.6,030.0,5.6,0000.0,0007.88,0003.15,0002.15
2023-11-14 17:43:00,SystemResetWarning,0832.1,5.01,000.00,028.5,027.8,000.0,036.7,030.0,5.6,0000.0,0007.91,0003.12,0002.12
2023-11-14 17:44:00,SystemResetWarning,0832.1,5.00,000.00,028.5,027.9,000.0,036.7,030.0,5.7,0000.0,0007.94,0003.09,0002.09
2023-11-14 17:45:00,SystemResetWarning,0832.1,5.00,000.00,028.6,027.9,000.0,036.7,030.1,5.9,0000.0,0007.76,0003.00,0002.05
2023-11-14 17:46:00,SystemResetWarning,0832.1,5.00,000.00,028.6,027.9,000.0,036.7,030.1,5.9,0000.0,0007.29,0002.83,0002.01
2023-11-14 17:47:00,SystemResetWarning,0832.2,5.00,000.00,028.6,027.9,000.0,036.7,030.1,5.9,0000.0,0006.32,0002.71,0001.98
2023-11-14 17:48:00,SystemResetWarning,0832.2,5.00,000.00,028.6,027.9,000.0,036.8,030.1,5.9,0000.0,0005.38,0002.70,0001.97
2023-11-14 17:49:00,SystemResetWarning,0832.2,5.00,000.00,028.6,027.9,000.0,036.8,030.1,5.8,0000.0,0005.53,0002.77,0001.95
2023-11-14 17:50:00,SystemResetWarning,0832.2,5.00,000.00,028.7,028.0,000.0,036.8,030.2,5.8,0000.0,0006.28,0002.77,0001.94
2023-11-14 17:51:00,SystemResetWarning,0832.2,5.00,000.00,028.7,028.0,000.0,036.8,030.2,5.9,0000.0,0007.17,0002.80,0001.95
2023-11-14 17:52:00,SystemResetWarning,0832.2,5.00,000.00,028.7,028.0,000.0,036.8,030.2,5.8,0000.0,0007.04,0002.75,0001.94
2023-11-14 17:53:00,SystemResetWarning,0832.2,5.00,000.00,028.7,028.0,000.0,036.9,030.2,5.9,0000.0,0007.15,0002.73,0001.95
2023-11-14 17:54:00,SystemResetWarning,0832.2,5.00,000.00,028.7,028.0,000.0,036.9,030.2,6.0,0000.0,0007.35,0002.72,0001.98
2023-11-14 17:55:00,SystemResetWarning,0832.2,5.00,000.00,028.8,028.1,000.0,036.9,030.2,6.1,0000.0,0007.43,0002.72,0001.99
2023-11-14 17:56:00,SystemResetWarning,0832.2,5.00,000.00,028.8,028.1,000.0,036.9,030.2,6.2,0000.0,0008.28,0002.82,0002.02
2023-11-14 17:57:00,SystemResetWarning,0832.2,4.98,000.00,028.8,027.8,000.0,036.9,030.3,6.2,0000.0,0009.75,0002.88,0002.05
2023-11-14 17:58:00,SystemResetWarning,0832.2,4.99,000.00,028.8,026.1,000.0,036.9,030.1,6.2,0000.0,0009.81,0002.96,0002.08
2023-11-14 17:59:00,SystemResetWarning,0832.1,5.00,000.00,028.7,024.8,000.0,036.8,029.8,6.3,0000.0,0009.87,0002.98,0002.10
